User: anonymous   Login
Location: Caltech
(34.1382°N, 118.1253°W)
Time: 15:07:34
(UTC-07:00)
Language:

NOAA 19 - Orbit

View from above orbital plane
View from above orbital plane
View from above satellite
View from above satellite

Ground track
Ground track

The orbit data is extracted from the following two-line orbital elements,

1 33591U 09005A   17289.56499110  .00000119  00000-0  89588-4 0  9990
2 33591  99.1085 258.2035 0013094 293.3803  66.5990 14.12220309447784
Epoch (UTC): 16 October 2017 13:33:35
Eccentricity: 0.0013094
inclination: 99.1085°
perigee height: 842 km
apogee height: 861 km
right ascension of ascending node: 258.2035°
argument of perigee: 293.3803°
revolutions per day: 14.12220309
mean anomaly at epoch: 66.5990°
orbit number at epoch: 44778

The dashed part of the orbit path shows where the satellite is in the earth's shadow,  

DLR